QPF
0.02 0.02 0.03 0.01 0.02 0.03 0.04 0.04 0.06 0.05 0.02 0.01 0.00 0.00 0.00 0.00 0.00 0.00 0.00 0.01 0.01 0.00 0.00 0.00 0.00 0.00 0.00 0.00 0.00 0.00 0.00 0.00 0.00 0.00 0.00 0.00 0.00 0.00
0.00 0.00 0.00 0.01 0.02 0.03 0.04 0.03 0.05 0.06 0.04 0.01 0.01 0.00 0.00 0.00 0.00 0.00 0.00 0.00 0.01 0.00 0.00 0.00 0.00 0.00 0.00 0.00 0.00 0.00 0.00 0.00 0.00 0.00 0.00 0.00 0.00 0.00
0.01 0.01 0.01 0.01 0.01 0.02 0.03 0.02 0.03 0.05 0.06 0.03 0.02 0.00 0.00 0.00 0.00 0.00 0.00 0.00 0.01 0.00 0.00 0.00 0.00 0.00 0.00 0.00 0.00 0.00 0.00 0.00 0.00 0.00 0.00 0.00 0.00 0.00
0.01 0.01 0.01 0.01 0.01 0.01 0.01 0.01 0.01 0.02 0.04 0.04 0.01 0.00 0.00 0.00 0.00 0.00 0.00 0.00 0.00 0.00 0.00 0.00 0.00 0.00 0.00 0.00 0.00 0.00 0.00 0.00 0.00 0.00 0.00 0.00 0.00 0.00
0.00 0.00 0.00 0.00 0.00 0.00 0.01 0.00 0.01 0.01 0.03 0.04 0.02 0.00 0.00 0.00 0.00 0.00 0.00 0.00 0.00 0.00 0.00 0.00 0.00 0.00 0.00 0.00 0.00 0.00 0.00 0.00 0.00 0.00 0.00 0.00 0.00 0.00
0.00 0.00 0.00 0.00 0.01 0.00 0.01 0.01 0.01 0.01 0.01 0.02 0.01 0.00 0.00 0.00 0.00 0.00 0.00 0.00 0.00 0.00 0.00 0.00 0.00 0.00 0.00 0.00 0.00 0.00 0.00 0.00 0.00 0.00 0.00 0.00 0.00 0.00
0.00 0.00 0.00 0.00 0.00 0.00 0.00 0.00 0.00 0.00 0.01 0.01 0.00 0.00 0.00 0.00 0.00 0.00 0.00 0.00 0.00 0.00 0.00 0.00 0.00 0.00 0.00 0.00 0.00 0.00 0.00 0.00 0.00 0.00 0.00 0.00 0.00 0.00
0.00 0.00 0.00 0.00 0.00 0.00 0.00 0.00 0.00 0.00 0.01 0.00 0.00 0.00 0.00 0.00 0.00 0.00 0.00 0.00 0.00 0.00 0.00 0.00 0.00 0.00 0.00 0.00 0.00 0.00 0.00 0.00 0.00 0.00 0.00 0.00 0.00 0.00
0.00 0.00 0.00 0.00 0.00 0.00 0.00 0.00 0.00 0.00 0.00 0.00 0.00 0.00 0.00 0.00 0.00 0.00 0.00 0.00 0.00 0.00 0.00 0.00 0.00 0.00 0.00 0.00 0.00 0.00 0.00 0.00 0.00 0.00 0.00 0.00 0.00 0.00
0.00 0.00 0.00 0.00 0.00 0.00 0.00 0.00 0.00 0.00 0.00 0.00 0.00 0.00 0.00 0.00 0.00 0.00 0.00 0.00 0.00 0.00 0.00 0.00 0.00 0.00 0.00 0.00 0.00 0.00 0.00 0.00 0.00 0.00 0.00 0.00 0.00 0.00
0.00 0.00 0.00 0.00 0.00 0.00 0.00 0.00 0.00 0.00 0.00 0.00 0.00 0.00 0.00 0.00 0.00 0.00 0.00 0.00 0.00 0.00 0.00 0.00 0.00 0.00 0.01 0.01 0.01 0.00 0.00 0.00 0.00 0.00 0.00 0.00 0.00 0.00
0.00 0.00 0.00 0.00 0.00 0.00 0.00 0.00 0.00 0.00 0.00 0.00 0.00 0.00 0.00 0.00 0.00 0.00 0.00 0.00 0.00 0.00 0.00 0.00 0.00 0.00 0.01 0.01 0.01 0.01 0.01 0.00 0.00 0.00 0.00 0.00 0.00 0.00
0.00 0.00 0.00 0.00 0.00 0.00 0.00 0.00 0.00 0.00 0.00 0.00 0.00 0.00 0.00 0.00 0.00 0.00 0.00 0.00 0.00 0.00 0.00 0.00 0.00 0.00 0.00 0.01 0.01 0.01 0.01 0.01 0.01 0.00 0.00 0.00 0.00 0.00
0.00 0.00 0.00 0.00 0.00 0.00 0.00 0.00 0.00 0.00 0.00 0.00 0.00 0.00 0.00 0.00 0.00 0.00 0.00 0.00 0.00 0.00 0.00 0.00 0.00 0.00 0.00 0.00 0.00 0.01 0.01 0.01 0.01 0.01 0.01 0.00 0.00 0.00
0.00 0.00 0.00 0.00 0.00 0.00 0.00 0.00 0.00 0.00 0.00 0.00 0.00 0.00 0.00 0.00 0.00 0.00 0.00 0.00 0.00 0.00 0.00 0.00 0.00 0.00 0.00 0.00 0.00 0.00 0.00 0.01 0.01 0.01 0.01 0.00 0.00 0.00
0.00 0.00 0.00 0.00 0.00 0.00 0.00 0.00 0.00 0.00 0.00 0.00 0.00 0.00 0.00 0.00 0.00 0.00 0.00 0.00 0.00 0.00 0.00 0.00 0.00 0.00 0.00 0.00 0.00 0.00 0.00 0.00 0.01 0.01 0.01 0.01 0.00 0.00
0.00 0.00 0.00 0.00 0.00 0.00 0.00 0.00 0.00 0.00 0.00 0.00 0.00 0.00 0.00 0.00 0.00 0.00 0.00 0.00 0.00 0.00 0.00 0.00 0.00 0.00 0.00 0.00 0.00 0.00 0.00 0.00 0.00 0.00 0.00 0.00 0.00 0.00
0.00 0.00 0.00 0.00 0.00 0.00 0.00 0.00 0.00 0.00 0.00 0.00 0.00 0.00 0.00 0.00 0.00 0.00 0.00 0.00 0.00 0.00 0.00 0.00 0.00 0.00 0.00 0.00 0.00 0.00 0.00 0.00 0.00 0.00 0.00 0.00 0.00 0.00
0.00 0.00 0.00 0.00 0.00 0.00 0.00 0.00 0.00 0.00 0.00 0.00 0.00 0.00 0.00 0.00 0.00 0.00 0.00 0.00 0.00 0.00 0.00 0.00 0.00 0.00 0.00 0.00 0.00 0.00 0.00 0.00 0.00 0.00 0.00 0.00 0.00 0.00
0.00 0.00 0.00 0.00 0.00 0.00 0.00 0.00 0.00 0.00 0.00 0.00 0.00 0.00 0.00 0.00 0.00 0.00 0.00 0.00 0.00 0.00 0.00 0.00 0.00 0.00 0.00 0.00 0.00 0.00 0.00 0.00 0.00 0.00 0.00 0.00 0.00 0.00
0.00 0.00 0.00 0.00 0.00 0.00 0.00 0.00 0.00 0.00 0.00 0.00 0.00 0.00 0.00 0.00 0.00 0.00 0.00 0.00 0.00 0.00 0.00 0.00 0.00 0.00 0.00 0.00 0.00 0.00 0.00 0.00 0.00 0.00 0.00 0.00 0.00 0.00
0.00 0.00 0.00 0.00 0.00 0.00 0.00 0.00 0.00 0.00 0.00 0.00 0.00 0.00 0.00 0.00 0.00 0.00 0.00 0.00 0.00 0.00 0.00 0.00 0.00 0.00 0.00 0.00 0.00 0.00 0.00 0.00 0.00 0.00 0.00 0.00 0.00 0.00
0.00 0.00 0.00 0.00 0.00 0.00 0.00 0.00 0.00 0.00 0.00 0.00 0.00 0.00 0.00 0.00 0.00 0.00 0.00 0.00 0.00 0.00 0.00 0.00 0.00 0.00 0.00 0.00 0.00 0.00 0.00 0.00 0.00 0.00 0.00 0.00 0.00 0.00
MSLP
1011.23 1010.73 1010.43 1009.43 1008.62 1008.24 1008.16 1008.13 1007.92 1006.65 1005.86 1006.40 1007.49 1008.17 1008.49 1008.98 1009.23 1009.98 1009.97 1010.50 1010.42 1011.30 1011.35 1013.28 1014.87 1016.18 1017.32 1018.66 1019.43 1020.39 1020.84 1021.53 1022.19 1022.53 1022.67 1023.04 1023.19 1023.54
1010.88 1010.63 1010.38 1009.97 1009.42 1008.72 1007.89 1007.53 1007.30 1006.73 1005.42 1006.19 1006.09 1006.98 1007.91 1008.54 1008.81 1009.15 1009.45 1009.63 1010.03 1010.39 1010.83 1012.49 1014.23 1015.84 1016.95 1018.67 1019.56 1020.17 1020.94 1021.89 1022.45 1022.71 1022.85 1023.45 1023.71 1023.99
1010.27 1009.88 1009.51 1009.22 1008.67 1008.28 1007.98 1007.42 1006.84 1006.70 1005.94 1005.46 1005.94 1006.38 1007.03 1007.89 1008.68 1008.98 1009.39 1009.84 1010.29 1010.47 1011.31 1012.10 1014.07 1015.40 1016.96 1018.34 1019.81 1020.71 1020.97 1022.59 1022.91 1023.10 1023.18 1023.54 1024.15 1024.61
1010.42 1009.85 1009.11 1009.01 1008.47 1008.02 1007.53 1007.11 1006.88 1006.63 1006.29 1005.15 1005.27 1005.75 1006.56 1006.99 1007.87 1008.47 1009.05 1009.54 1010.28 1010.90 1011.88 1013.20 1014.08 1015.55 1016.99 1018.24 1019.68 1021.15 1021.66 1022.90 1023.50 1023.55 1023.66 1024.00 1024.37 1025.17
1009.98 1009.43 1008.89 1008.48 1007.98 1007.70 1007.19 1006.79 1006.55 1006.44 1006.25 1006.07 1004.92 1004.97 1005.52 1006.57 1007.56 1008.23 1008.90 1009.84 1010.13 1010.46 1011.76 1013.36 1014.48 1015.74 1017.16 1018.43 1019.85 1021.28 1022.29 1023.58 1023.96 1024.13 1024.42 1024.66 1025.04 1025.48
1009.69 1009.12 1008.51 1007.86 1007.25 1006.70 1006.24 1005.81 1005.62 1005.32 1005.28 1005.23 1005.16 1004.63 1004.90 1006.08 1007.05 1008.08 1009.58 1009.90 1010.41 1011.15 1012.84 1013.91 1014.78 1016.08 1017.32 1018.85 1019.87 1021.53 1022.61 1023.77 1024.10 1025.16 1025.43 1025.40 1025.87 1026.22
1008.56 1008.06 1007.28 1006.83 1006.25 1005.79 1005.33 1004.76 1004.40 1004.17 1004.11 1004.10 1004.32 1004.61 1004.61 1005.46 1006.42 1007.80 1009.08 1010.17 1011.26 1012.03 1013.48 1014.80 1015.43 1016.86 1018.19 1019.05 1020.26 1021.63 1022.91 1024.08 1025.00 1025.71 1025.92 1026.13 1026.66 1026.73
1007.70 1006.98 1006.40 1005.68 1004.83 1004.17 1003.64 1003.22 1003.07 1002.96 1002.81 1002.85 1003.31 1003.58 1004.14 1004.82 1005.96 1007.48 1009.17 1010.59 1012.45 1013.51 1013.67 1015.47 1016.01 1017.55 1018.68 1019.05 1020.65 1021.59 1023.08 1024.37 1025.78 1025.88 1026.04 1026.61 1027.01 1027.29
1007.26 1006.49 1005.62 1004.79 1003.89 1002.87 1001.85 1001.12 1000.76 1000.94 1001.58 1001.65 1002.21 1002.40 1003.45 1004.19 1005.52 1007.36 1008.56 1009.30 1010.57 1012.60 1013.19 1015.40 1016.78 1017.79 1018.61 1019.85 1021.29 1022.05 1023.73 1024.69 1025.44 1025.60 1026.35 1026.74 1027.23 1027.91
1007.16 1006.36 1005.37 1004.26 1002.86 1001.83 1000.32 998.92 998.29 998.50 999.57 1000.97 1001.18 1001.77 1002.67 1004.10 1005.01 1005.95 1007.60 1009.71 1011.57 1013.05 1013.49 1015.31 1016.88 1018.02 1019.09 1020.34 1021.44 1022.91 1024.01 1024.38 1024.75 1025.71 1026.41 1026.95 1027.49 1027.88
1006.94 1006.09 1005.26 1004.16 1002.62 1001.08 999.20 997.46 996.74 997.15 998.19 999.57 1001.01 1001.70 1002.64 1003.90 1004.98 1006.79 1008.44 1009.85 1011.58 1012.99 1014.02 1015.41 1016.94 1018.24 1019.68 1020.76 1022.20 1023.15 1023.98 1024.89 1025.41 1025.61 1026.25 1027.43 1027.77 1027.78
1006.57 1006.25 1005.37 1004.42 1002.74 1001.01 999.60 998.33 997.58 997.68 998.46 999.88 1001.09 1002.05 1003.28 1004.47 1004.90 1005.28 1006.96 1008.88 1010.48 1013.01 1014.34 1015.06 1016.36 1017.45 1020.21 1021.42 1022.34 1023.47 1024.11 1025.03 1025.50 1025.71 1026.21 1027.70 1027.50 1026.78
1007.13 1006.52 1005.73 1004.89 1003.39 1002.06 1000.77 1000.08 999.70 999.49 999.92 1000.52 1002.25 1003.51 1004.64 1005.69 1006.76 1007.51 1008.22 1008.67 1009.51 1010.75 1013.29 1013.91 1015.67 1016.89 1018.06 1020.37 1022.25 1023.02 1023.96 1024.88 1025.33 1025.60 1026.47 1027.56 1027.20 1026.60
1008.03 1007.13 1006.37 1005.60 1004.54 1003.55 1002.66 1002.20 1001.55 1001.41 1001.58 1002.18 1003.30 1004.53 1005.48 1006.56 1007.53 1008.42 1009.35 1010.46 1011.20 1012.03 1013.75 1013.90 1015.19 1016.25 1017.54 1019.38 1020.95 1022.65 1023.93 1024.43 1024.42 1025.06 1026.19 1027.08 1027.16 1027.50
1008.55 1007.76 1006.84 1006.15 1005.49 1004.85 1004.27 1003.65 1003.27 1003.15 1003.31 1003.63 1004.50 1005.55 1006.54 1007.36 1008.25 1009.35 1010.42 1011.38 1012.59 1013.77 1014.65 1015.13 1015.46 1016.61 1017.61 1018.95 1020.19 1021.93 1022.86 1023.42 1024.09 1024.80 1025.37 1025.95 1026.74 1027.64
1008.55 1007.91 1007.35 1006.78 1006.36 1006.05 1005.61 1005.33 1004.99 1004.80 1004.83 1005.16 1005.84 1006.78 1007.53 1008.35 1009.25 1010.08 1011.03 1012.14 1012.96 1014.45 1015.22 1015.72 1016.43 1017.09 1017.93 1018.72 1019.91 1020.79 1021.81 1022.57 1023.46 1024.19 1024.65 1025.75 1026.44 1027.18
1008.79 1008.13 1007.66 1007.20 1006.95 1006.86 1006.83 1006.74 1006.60 1006.50 1006.50 1006.81 1007.17 1007.79 1008.44 1009.20 1010.07 1010.85 1011.62 1012.51 1013.09 1014.15 1015.35 1016.35 1016.96 1017.44 1017.90 1018.78 1019.78 1020.75 1021.53 1021.46 1022.78 1024.06 1024.67 1025.37 1026.12 1026.76
1009.31 1008.83 1008.55 1008.26 1007.98 1007.98 1007.93 1007.92 1007.95 1007.87 1007.95 1008.08 1008.39 1008.83 1009.39 1010.07 1010.71 1011.42 1012.16 1012.77 1013.44 1014.49 1015.31 1016.18 1016.95 1017.77 1018.83 1019.58 1019.43 1019.84 1020.48 1021.64 1023.01 1023.78 1024.54 1024.91 1025.67 1026.12
1010.05 1009.77 1009.40 1009.19 1008.91 1008.90 1008.99 1009.03 1009.11 1009.18 1009.26 1009.34 1009.57 1009.89 1010.28 1010.82 1011.29 1011.92 1012.61 1013.20 1013.96 1014.81 1015.76 1016.46 1017.05 1017.27 1017.46 1018.41 1020.06 1020.30 1021.07 1022.08 1022.82 1023.59 1024.03 1024.50 1024.97 1025.66
1010.91 1010.68 1010.25 1010.02 1009.89 1009.80 1009.85 1009.83 1009.96 1010.03 1010.03 1010.20 1010.50 1010.84 1011.17 1011.53 1011.99 1012.58 1013.28 1013.95 1014.62 1015.32 1015.83 1016.28 1016.68 1017.04 1017.41 1018.62 1019.95 1021.24 1021.34 1021.48 1022.15 1022.84 1023.48 1024.33 1025.73 1025.75
1011.88 1011.61 1011.27 1011.01 1010.87 1010.83 1010.98 1010.96 1011.01 1011.13 1011.19 1011.20 1011.45 1011.64 1011.90 1012.17 1012.67 1013.18 1013.82 1014.46 1015.10 1015.64 1016.21 1016.84 1017.64 1017.76 1018.20 1018.98 1020.17 1021.16 1021.93 1022.18 1022.11 1022.37 1023.19 1024.36 1025.19 1026.05
1012.96 1012.59 1012.33 1012.13 1012.02 1011.94 1011.97 1011.96 1011.96 1012.11 1012.23 1012.33 1012.57 1012.75 1012.98 1013.27 1013.68 1014.15 1014.65 1015.10 1015.66 1016.19 1016.90 1017.80 1018.27 1018.37 1018.40 1018.72 1019.76 1020.84 1021.83 1022.55 1023.13 1023.32 1023.99 1024.37 1024.88 1025.26
1014.04 1013.64 1013.55 1013.31 1013.09 1012.94 1012.81 1012.87 1013.02 1013.11 1013.19 1013.35 1013.55 1013.82 1014.00 1014.19 1014.59 1014.94 1015.36 1015.76 1016.22 1016.80 1017.37 1017.83 1018.10 1018.43 1018.82 1019.44 1020.22 1021.09 1022.10 1022.95 1023.66 1024.29 1025.10 1025.46 1025.50 1025.44
Thickness
5524 5514 5503 5502 5496 5487 5480 5474 5468 5479 5488 5483 5470 5465 5465 5465 5471 5473 5479 5491 5499 5506 5516 5509 5503 5496 5494 5490 5488 5486 5492 5492 5489 5491 5492 5492 5492 5490
5502 5491 5480 5471 5466 5465 5466 5465 5463 5466 5477 5473 5471 5463 5456 5452 5453 5459 5466 5475 5481 5489 5498 5497 5486 5483 5479 5471 5471 5473 5475 5476 5474 5478 5480 5478 5478 5477
5487 5476 5468 5459 5457 5456 5452 5452 5453 5450 5451 5464 5459 5454 5452 5445 5440 5443 5450 5459 5465 5468 5475 5481 5473 5472 5465 5458 5454 5454 5460 5453 5459 5463 5467 5467 5463 5460
5462 5453 5452 5446 5444 5442 5440 5438 5434 5431 5429 5444 5447 5442 5441 5440 5434 5433 5436 5444 5447 5452 5449 5449 5456 5452 5447 5444 5438 5433 5439 5435 5441 5447 5451 5452 5452 5444
5447 5439 5439 5435 5432 5427 5423 5421 5419 5414 5412 5413 5428 5430 5435 5429 5423 5424 5423 5424 5436 5445 5439 5430 5434 5433 5428 5429 5422 5418 5419 5418 5425 5429 5431 5435 5435 5433
5431 5429 5427 5424 5421 5417 5415 5415 5413 5410 5408 5405 5407 5416 5425 5420 5414 5408 5404 5417 5424 5428 5420 5417 5419 5413 5413 5411 5411 5404 5402 5404 5407 5405 5411 5418 5418 5418
5430 5426 5424 5417 5412 5411 5410 5410 5408 5408 5406 5404 5400 5402 5412 5413 5409 5404 5403 5406 5408 5411 5407 5402 5406 5397 5395 5401 5396 5390 5387 5387 5387 5388 5394 5399 5400 5402
5426 5422 5416 5413 5415 5415 5413 5413 5411 5410 5410 5405 5399 5401 5409 5411 5403 5398 5394 5397 5394 5396 5400 5392 5394 5384 5382 5388 5381 5382 5374 5370 5368 5372 5380 5382 5384 5385
5419 5416 5413 5414 5415 5417 5419 5422 5422 5419 5411 5410 5403 5408 5409 5411 5401 5394 5394 5405 5405 5394 5397 5385 5380 5378 5375 5368 5366 5368 5358 5357 5358 5363 5365 5368 5369 5366
5410 5408 5410 5412 5417 5419 5425 5434 5438 5434 5423 5410 5408 5410 5409 5401 5403 5403 5398 5394 5387 5382 5387 5378 5370 5368 5364 5357 5357 5352 5347 5350 5353 5351 5352 5353 5353 5353
5402 5404 5405 5407 5415 5420 5431 5444 5448 5439 5428 5419 5408 5407 5404 5399 5399 5396 5392 5388 5383 5378 5375 5373 5365 5360 5353 5347 5339 5341 5339 5337 5337 5341 5342 5336 5338 5342
5400 5397 5400 5402 5410 5419 5425 5433 5439 5432 5425 5413 5407 5407 5403 5398 5400 5406 5398 5390 5384 5370 5365 5366 5364 5360 5339 5336 5332 5328 5327 5326 5327 5331 5332 5322 5328 5335
5390 5390 5394 5396 5403 5409 5413 5418 5421 5421 5418 5413 5400 5397 5394 5392 5389 5387 5388 5390 5387 5385 5365 5368 5359 5353 5348 5335 5324 5322 5321 5318 5319 5322 5318 5311 5318 5324
5376 5381 5385 5388 5392 5395 5396 5400 5407 5409 5409 5404 5397 5390 5387 5384 5379 5374 5370 5365 5363 5362 5350 5357 5352 5349 5344 5335 5326 5317 5311 5313 5317 5315 5308 5304 5307 5308
5370 5372 5376 5380 5382 5384 5384 5389 5392 5394 5395 5393 5386 5379 5375 5372 5368 5361 5354 5348 5340 5335 5334 5336 5339 5336 5333 5327 5322 5314 5314 5313 5308 5305 5304 5304 5300 5295
5373 5371 5370 5371 5372 5373 5375 5376 5380 5381 5382 5380 5374 5367 5363 5359 5355 5351 5346 5341 5338 5328 5325 5323 5319 5318 5320 5321 5317 5316 5311 5309 5307 5304 5304 5296 5293 5289
5374 5375 5371 5370 5368 5366 5365 5364 5365 5367 5367 5364 5362 5360 5357 5351 5347 5343 5341 5337 5338 5333 5325 5318 5317 5319 5320 5318 5314 5310 5307 5315 5305 5294 5292 5289 5285 5281
5370 5371 5367 5366 5364 5361 5358 5356 5354 5355 5355 5355 5353 5351 5347 5344 5341 5338 5335 5333 5331 5326 5321 5318 5315 5313 5309 5307 5310 5312 5311 5302 5293 5287 5283 5283 5278 5276
5363 5362 5362 5360 5360 5357 5353 5350 5347 5345 5344 5344 5343 5341 5340 5337 5336 5332 5329 5328 5324 5320 5314 5312 5311 5314 5318 5315 5302 5299 5294 5286 5283 5279 5279 5277 5276 5271
5357 5355 5356 5355 5353 5351 5349 5347 5343 5341 5339 5337 5335 5334 5333 5332 5330 5327 5323 5320 5316 5313 5313 5312 5312 5312 5312 5301 5292 5283 5284 5286 5282 5278 5274 5269 5259 5259
5348 5347 5347 5347 5345 5343 5339 5337 5335 5332 5331 5331 5328 5326 5324 5324 5321 5320 5316 5312 5309 5307 5305 5302 5297 5297 5295 5291 5284 5278 5274 5273 5273 5271 5266 5258 5252 5244
5335 5336 5335 5335 5333 5331 5329 5328 5326 5324 5321 5320 5317 5316 5315 5313 5310 5308 5305 5304 5301 5298 5294 5287 5286 5287 5288 5289 5281 5272 5265 5259 5255 5254 5249 5244 5240 5236
5320 5321 5319 5319 5320 5319 5319 5316 5313 5312 5311 5309 5307 5305 5303 5302 5298 5296 5295 5293 5291 5287 5284 5282 5280 5279 5278 5273 5266 5259 5250 5243 5237 5231 5224 5220 5219 5218